STARLINK-1624, 46130

Orbit data source: Space-Track

STARLINK-1624, 46130 is a payload satellite owned by SpaceX/Seattle (US) in LEO that was launched on Tue, 18 Aug 2020 UTC via an FALCON 9 launch vehicle from the Air Force Eastern Test Range (AFETR). Payload-class satellites include a variety of spacecraft equipped with specific instruments for various scientific and technological missions. These include communications satellites like Starlink; space stations such as the ISS; scientific satellites like the Hubble; Earth observation satellites from companies like Planet Labs, Umbra, and HawkEye 360; GPS; miniature CubeSats for education and research; and military/defense satellites.

Loading next visibility...
Identifier
46130, 2020-057P
Orbit
LEO
Country
Flag of USUS
Related business
Manufacturer
SpaceX/Seattle
Mission
Partially operational Commercial Communications
Bus & Motor
STARLINK, Unknown motor
Mass
260 kg wet, ~248 kg dry
Launch date (UTC)
2020-08-18 (6 years ago)
Launch vehicle
FALCON 9
Launch site
Air Force Eastern Test Range (AFETR)
Object type
Payload
Rocket body
Debris
Shape & HBR
Box + 1 Pan, 10.1 m
Radar Cross Section
13.562 m², Large (>1 m²)

Expand to show TLE details & history
Last TLE update: 14 hours ago

TLE from 14 hours ago
0 STARLINK-1624
1 46130U 20057P   26072.00002315  .00044765  00000-0  38225-3 0  9995
2 46130  53.0417 215.9977 0005508 331.8058 203.2712 15.69055113  5943
Epoch: 2026-03-13T00:00Z
TLE epoch observation values (Epoch: 2026-03-13T00:00:02.000Z)
Latitude
3.89537°
Longitude
-137.57273°
Altitude
365.492 km
Speed
7.69 km/s
True Right ascension
02h 12m 18s
True Declination
3° 52' 15"
Sunlit
Object was in daylight at epoch
Visualization orbit readout
Latitude
Unknown
Longitude
Unknown
Altitude
Unknown
Speed
Unknown
Apparent Right ascension
Unknown
Apparent Declination
Unknown
Sunlit
N/A
Visualization observer readout
Local Sidereal Time
18:41:26
Azimuth
Unknown
Elevation
Unknown
Doppler factor
Unknown
Orbital elements
Apogee altitude
365.594 km
Perigee altitude
358.169 km
Semi-major axis
6,740.018 km
Eccentricity
0.00055
Inclination
53.0417°
RAAN
215.9977°
Arg. of periapsis
331.8058°
True anomaly
203.24628°
Mean anomaly
203.2712°
Eccentric anomaly
203.25874°
Mean motion
3.9224 °/min
Orbital period
91.78 mins
BSTAR
0.00038225
Loading maneuver chart data...
Computing Atmospheric mass density...

Documentation

Showing up to 5 results
|